THY8RA LTAC-LTFM

Flight info

Callsign THY8RA
Flight time 0h 47m
Altitude 34000
Route YAVRU UA4 ERSEN
Aircraft A321/M-SDE3FGHIRWY/LB1

Departure

Time 2026-05-05 05:04
Airport Esenboğa International Airport (LTAC)

Arrival

Time 2026-05-05 05:51
Airport İstanbul Airport (LTFM)
Time Latitude Longitude Altitude Speed Heading
2026-05-05 04:35 40.11656 32.99233 3113 ft 0 kts 155°
2026-05-05 04:53 40.11673 32.99222 3113 ft 3 kts 155°
2026-05-05 04:53 40.11692 32.99211 3113 ft 3 kts 158°
2026-05-05 04:53 40.11711 32.99202 3113 ft 3 kts 162°
2026-05-05 04:54 40.11723 32.99197 3113 ft 1 kts 162°
2026-05-05 05:00 40.11718 32.99197 3113 ft 1 kts 180°
2026-05-05 05:00 40.11712 32.99187 3113 ft 2 kts 232°
2026-05-05 05:01 40.11701 32.99160 3113 ft 5 kts 241°
2026-05-05 05:01 40.11679 32.99111 3113 ft 8 kts 237°
2026-05-05 05:01 40.11643 32.99045 3113 ft 10 kts 234°
2026-05-05 05:01 40.11627 32.98952 3113 ft 12 kts 288°
2026-05-05 05:02 40.11666 32.98870 3113 ft 10 kts 307°
2026-05-05 05:02 40.11713 32.98789 3112 ft 12 kts 307°
2026-05-05 05:02 40.11769 32.98690 3113 ft 15 kts 307°
2026-05-05 05:02 40.11831 32.98579 3113 ft 16 kts 306°
2026-05-05 05:03 40.11896 32.98501 3113 ft 9 kts 348°
2026-05-05 05:03 40.11936 32.98518 3113 ft 4 kts 33°
2026-05-05 05:03 40.11939 32.98520 3113 ft 0 kts 34°
2026-05-05 05:03 40.11946 32.98527 3113 ft 8 kts 34°
2026-05-05 05:04 40.12211 32.98776 3117 ft 87 kts 36°
2026-05-05 05:04 40.12892 32.99427 3124 ft 153 kts 36°
2026-05-05 05:04 40.13868 33.00351 3472 ft 177 kts 35°
2026-05-05 05:04 40.14831 33.01324 4482 ft 172 kts 36°
2026-05-05 05:05 40.15776 33.02350 5059 ft 184 kts 36°
2026-05-05 05:05 40.16804 33.03441 5502 ft 200 kts 37°
2026-05-05 05:05 40.17941 33.04635 5858 ft 219 kts 36°
2026-05-05 05:05 40.19217 33.05971 6118 ft 247 kts 37°
2026-05-05 05:06 40.20567 33.07348 7087 ft 243 kts 28°
2026-05-05 05:06 40.22166 33.07943 7834 ft 247 kts 356°
2026-05-05 05:06 40.23828 33.07173 8347 ft 267 kts 323°
2026-05-05 05:06 40.25079 33.05366 9163 ft 275 kts 306°
2026-05-05 05:07 40.26078 33.03161 9893 ft 283 kts 302°
2026-05-05 05:07 40.27103 33.00925 10538 ft 294 kts 305°
2026-05-05 05:07 40.28310 32.98637 10815 ft 316 kts 308°
2026-05-05 05:07 40.29662 32.96292 11186 ft 332 kts 310°
2026-05-05 05:08 40.31112 32.93889 11795 ft 340 kts 311°
2026-05-05 05:08 40.32607 32.91457 12551 ft 343 kts 311°
2026-05-05 05:08 40.34067 32.88943 13336 ft 348 kts 304°
2026-05-05 05:08 40.35135 32.86107 14055 ft 355 kts 291°
2026-05-05 05:09 40.35787 32.82966 14727 ft 359 kts 286°
2026-05-05 05:09 40.36383 32.79754 15425 ft 362 kts 286°
2026-05-05 05:09 40.36977 32.76524 16126 ft 366 kts 286°
2026-05-05 05:09 40.37575 32.73265 16820 ft 369 kts 286°
2026-05-05 05:10 40.38182 32.69978 17526 ft 372 kts 286°
2026-05-05 05:10 40.38791 32.66696 18206 ft 376 kts 286°
2026-05-05 05:10 40.39415 32.63345 18806 ft 379 kts 286°
2026-05-05 05:10 40.40047 32.59965 19389 ft 382 kts 287°
2026-05-05 05:11 40.40683 32.56562 19964 ft 386 kts 287°
2026-05-05 05:11 40.41325 32.53111 20555 ft 390 kts 287°
2026-05-05 05:11 40.41969 32.49633 21146 ft 394 kts 287°
2026-05-05 05:11 40.42618 32.46115 21735 ft 397 kts 287°
2026-05-05 05:12 40.43269 32.42564 22323 ft 401 kts 287°
2026-05-05 05:12 40.43917 32.39023 22910 ft 405 kts 287°
2026-05-05 05:12 40.44582 32.35385 23464 ft 409 kts 287°
2026-05-05 05:12 40.45241 32.31787 23947 ft 412 kts 288°
2026-05-05 05:13 40.45909 32.28123 24367 ft 415 kts 291°
2026-05-05 05:13 40.46583 32.24404 24805 ft 418 kts 291°
2026-05-05 05:13 40.47273 32.20670 25281 ft 418 kts 294°
2026-05-05 05:13 40.48218 32.17142 25768 ft 413 kts 300°
2026-05-05 05:14 40.49287 32.13579 26270 ft 414 kts 300°
2026-05-05 05:14 40.50328 32.10098 26739 ft 416 kts 300°
2026-05-05 05:14 40.51383 32.06544 27219 ft 417 kts 300°
2026-05-05 05:14 40.52434 32.02980 27712 ft 419 kts 300°
2026-05-05 05:15 40.53478 31.99428 28164 ft 420 kts 299°
2026-05-05 05:15 40.54537 31.95833 28665 ft 420 kts 299°
2026-05-05 05:15 40.55597 31.92244 29139 ft 421 kts 300°
2026-05-05 05:15 40.56670 31.88690 29589 ft 422 kts 300°
2026-05-05 05:16 40.57735 31.85074 30042 ft 425 kts 299°
2026-05-05 05:16 40.58748 31.81406 30386 ft 428 kts 297°
2026-05-05 05:16 40.59713 31.77675 30715 ft 432 kts 296°
2026-05-05 05:16 40.60646 31.73891 30997 ft 436 kts 296°
2026-05-05 05:17 40.61571 31.70055 31258 ft 439 kts 295°
2026-05-05 05:17 40.62480 31.66261 31624 ft 440 kts 295°
2026-05-05 05:17 40.63415 31.62379 32067 ft 439 kts 295°
2026-05-05 05:17 40.64336 31.58586 32518 ft 439 kts 296°
2026-05-05 05:18 40.65274 31.54758 32968 ft 439 kts 296°
2026-05-05 05:18 40.66213 31.50940 33404 ft 439 kts 296°
2026-05-05 05:18 40.67156 31.47109 33824 ft 439 kts 296°
2026-05-05 05:18 40.68100 31.43274 33995 ft 438 kts 296°
2026-05-05 05:19 40.69022 31.39494 34011 ft 427 kts 295°
2026-05-05 05:19 40.70047 31.35279 34024 ft 424 kts 296°
2026-05-05 05:20 40.71856 31.27898 34030 ft 422 kts 296°
2026-05-05 05:20 40.72765 31.24209 33899 ft 422 kts 296°
2026-05-05 05:20 40.73651 31.20577 33373 ft 419 kts 295°
2026-05-05 05:20 40.74528 31.16925 32886 ft 415 kts 295°
2026-05-05 05:21 40.75391 31.13313 32445 ft 411 kts 295°
2026-05-05 05:21 40.76247 31.09731 31974 ft 406 kts 295°
2026-05-05 05:21 40.77085 31.06227 31531 ft 402 kts 295°
2026-05-05 05:21 40.77926 31.02717 31079 ft 398 kts 295°
2026-05-05 05:22 40.78764 30.99256 30632 ft 394 kts 296°
2026-05-05 05:22 40.79587 30.95860 30164 ft 391 kts 296°
2026-05-05 05:22 40.80402 30.92451 29674 ft 388 kts 295°
2026-05-05 05:22 40.81214 30.89056 29156 ft 385 kts 295°
2026-05-05 05:23 40.82009 30.85730 28626 ft 383 kts 295°
2026-05-05 05:23 40.82806 30.82381 28128 ft 380 kts 295°
2026-05-05 05:23 40.83601 30.79047 27648 ft 378 kts 295°
2026-05-05 05:23 40.84382 30.75772 27178 ft 376 kts 295°
2026-05-05 05:24 40.85165 30.72476 27004 ft 376 kts 295°
2026-05-05 05:24 40.85950 30.69170 27032 ft 377 kts 295°
2026-05-05 05:24 40.86633 30.65801 26837 ft 382 kts 287°
2026-05-05 05:24 40.87004 30.62354 26378 ft 383 kts 285°
2026-05-05 05:25 40.87344 30.58867 25955 ft 381 kts 284°
2026-05-05 05:25 40.87677 30.55392 25515 ft 379 kts 284°
2026-05-05 05:25 40.88003 30.51988 25081 ft 378 kts 284°
2026-05-05 05:25 40.88432 30.48592 24627 ft 370 kts 292°
2026-05-05 05:26 40.89288 30.45447 24220 ft 358 kts 302°
2026-05-05 05:26 40.90544 30.42663 23794 ft 349 kts 313°
2026-05-05 05:26 40.92101 30.40252 23332 ft 344 kts 318°
2026-05-05 05:26 40.93698 30.37904 22820 ft 342 kts 317°
2026-05-05 05:27 40.95281 30.35556 22337 ft 341 kts 317°
2026-05-05 05:27 40.96861 30.33214 21849 ft 339 kts 317°
2026-05-05 05:27 40.99992 30.28564 20912 ft 336 kts 317°
2026-05-05 05:28 41.01546 30.26246 20415 ft 335 kts 316°
2026-05-05 05:28 41.03077 30.23960 19944 ft 334 kts 316°
2026-05-05 05:28 41.04619 30.21655 19479 ft 333 kts 316°
2026-05-05 05:28 41.06127 30.19372 19009 ft 333 kts 313°
2026-05-05 05:29 41.07191 30.16635 18664 ft 338 kts 287°
2026-05-05 05:29 41.07283 30.13540 18425 ft 340 kts 262°
2026-05-05 05:29 41.06332 30.10659 18043 ft 345 kts 233°
2026-05-05 05:29 41.04620 30.08428 17594 ft 346 kts 223°
2026-05-05 05:30 41.02811 30.06334 17186 ft 344 kts 223°
2026-05-05 05:30 41.01003 30.04266 16805 ft 342 kts 223°
2026-05-05 05:30 40.99208 30.02213 16423 ft 339 kts 223°
2026-05-05 05:30 40.97451 30.00197 16048 ft 337 kts 223°
2026-05-05 05:31 40.95686 29.98168 15681 ft 335 kts 223°
2026-05-05 05:31 40.93936 29.96143 15321 ft 332 kts 223°
2026-05-05 05:31 40.92217 29.94145 15061 ft 329 kts 223°
2026-05-05 05:31 40.90499 29.92145 15045 ft 331 kts 223°
2026-05-05 05:32 40.88876 29.89973 15051 ft 331 kts 234°
2026-05-05 05:32 40.87681 29.87400 15055 ft 327 kts 249°
2026-05-05 05:32 40.86994 29.84563 15057 ft 323 kts 263°
2026-05-05 05:32 40.86814 29.81630 15041 ft 318 kts 274°
2026-05-05 05:33 40.86797 29.78708 15051 ft 318 kts 273°
2026-05-05 05:33 40.86767 29.75790 14781 ft 316 kts 273°
2026-05-05 05:33 40.86728 29.72899 14410 ft 314 kts 272°
2026-05-05 05:33 40.86688 29.70056 14120 ft 310 kts 272°
2026-05-05 05:34 40.86646 29.67256 14007 ft 299 kts 273°
2026-05-05 05:34 40.86582 29.64555 13825 ft 293 kts 268°
2026-05-05 05:34 40.86206 29.61913 13502 ft 292 kts 261°
2026-05-05 05:34 40.85774 29.59302 13178 ft 290 kts 261°
2026-05-05 05:35 40.85343 29.56700 12849 ft 288 kts 261°
2026-05-05 05:35 40.84928 29.54150 12528 ft 286 kts 261°
2026-05-05 05:35 40.84537 29.51583 12207 ft 282 kts 267°
2026-05-05 05:35 40.84431 29.49031 11998 ft 277 kts 272°
2026-05-05 05:36 40.84364 29.46480 11978 ft 279 kts 272°
2026-05-05 05:36 40.84288 29.43934 11981 ft 279 kts 271°
2026-05-05 05:36 40.84210 29.41354 11980 ft 279 kts 271°
2026-05-05 05:36 40.84135 29.38815 11983 ft 280 kts 272°
2026-05-05 05:37 40.84062 29.36235 11981 ft 279 kts 271°
2026-05-05 05:37 40.83985 29.33664 11981 ft 280 kts 271°
2026-05-05 05:37 40.83910 29.31095 11979 ft 279 kts 272°
2026-05-05 05:37 40.83837 29.28569 11725 ft 277 kts 271°
2026-05-05 05:38 40.83763 29.26022 11396 ft 276 kts 271°
2026-05-05 05:38 40.83691 29.23487 11071 ft 274 kts 272°
2026-05-05 05:38 40.83614 29.21011 10768 ft 273 kts 272°
2026-05-05 05:38 40.83534 29.18519 10451 ft 271 kts 272°
2026-05-05 05:39 40.83455 29.16033 10140 ft 270 kts 271°
2026-05-05 05:39 40.83374 29.13563 9817 ft 268 kts 271°
2026-05-05 05:39 40.83310 29.11106 9471 ft 265 kts 276°
2026-05-05 05:39 40.83532 29.08748 9131 ft 261 kts 283°
2026-05-05 05:40 40.83818 29.06377 8790 ft 259 kts 283°
2026-05-05 05:40 40.84096 29.04025 8470 ft 258 kts 283°
2026-05-05 05:40 40.84367 29.01709 8150 ft 257 kts 283°
2026-05-05 05:40 40.84633 28.99398 7994 ft 248 kts 283°
2026-05-05 05:41 40.84883 28.97203 8000 ft 236 kts 284°
2026-05-05 05:41 40.85262 28.95144 7975 ft 228 kts 300°
2026-05-05 05:41 40.86108 28.93418 7673 ft 222 kts 312°
2026-05-05 05:41 40.87029 28.91804 7372 ft 221 kts 312°
2026-05-05 05:42 40.87960 28.90183 7051 ft 220 kts 312°
2026-05-05 05:42 40.88883 28.88573 6731 ft 219 kts 312°
2026-05-05 05:42 40.89791 28.86988 6423 ft 218 kts 312°
2026-05-05 05:42 40.90710 28.85388 6098 ft 217 kts 312°
2026-05-05 05:43 40.91621 28.83802 5779 ft 216 kts 312°
2026-05-05 05:43 40.92517 28.82237 5448 ft 214 kts 312°
2026-05-05 05:43 40.93421 28.80653 5132 ft 214 kts 311°
2026-05-05 05:43 40.94304 28.79109 5011 ft 212 kts 312°
2026-05-05 05:44 40.95201 28.77542 5011 ft 213 kts 312°
2026-05-05 05:44 40.96096 28.75978 5009 ft 213 kts 312°
2026-05-05 05:44 40.97018 28.74456 5004 ft 210 kts 322°
2026-05-05 05:44 40.98248 28.73520 5012 ft 202 kts 350°
2026-05-05 05:45 40.99608 28.73325 5018 ft 194 kts 359°
2026-05-05 05:45 41.00934 28.73271 5008 ft 188 kts 360°
2026-05-05 05:45 41.02221 28.73242 4979 ft 187 kts
2026-05-05 05:45 41.03529 28.73215 4803 ft 188 kts 360°
2026-05-05 05:46 41.04853 28.73188 4562 ft 192 kts
2026-05-05 05:46 41.06200 28.73164 4294 ft 195 kts
2026-05-05 05:46 41.07565 28.73138 4038 ft 197 kts
2026-05-05 05:46 41.08924 28.73111 3767 ft 196 kts
2026-05-05 05:47 41.10257 28.73085 3516 ft 183 kts
2026-05-05 05:47 41.11481 28.73061 3263 ft 172 kts 360°
2026-05-05 05:47 41.12260 28.73046 3106 ft 164 kts 360°
2026-05-05 05:47 41.13370 28.73024 2889 ft 155 kts
2026-05-05 05:48 41.14432 28.73004 2688 ft 150 kts
2026-05-05 05:48 41.15476 28.72984 2486 ft 149 kts 359°
2026-05-05 05:48 41.16499 28.72964 2282 ft 148 kts 358°
2026-05-05 05:48 41.17527 28.72944 2080 ft 146 kts 359°
2026-05-05 05:49 41.18539 28.72924 1885 ft 147 kts 359°
2026-05-05 05:49 41.19561 28.72905 1682 ft 148 kts 359°
2026-05-05 05:49 41.20568 28.72885 1496 ft 141 kts 359°
2026-05-05 05:49 41.21537 28.72865 1274 ft 138 kts 359°
2026-05-05 05:50 41.22496 28.72848 1076 ft 137 kts 359°
2026-05-05 05:50 41.23440 28.72848 880 ft 137 kts 358°
2026-05-05 05:50 41.24399 28.72824 732 ft 138 kts 357°
2026-05-05 05:50 41.25352 28.72802 573 ft 136 kts 357°
2026-05-05 05:51 41.26304 28.72776 403 ft 136 kts 355°
2026-05-05 05:51 41.27197 28.72753 333 ft 115 kts 359°
2026-05-05 05:51 41.27829 28.72740 331 ft 71 kts 359°
2026-05-05 05:51 41.28182 28.72731 330 ft 37 kts
2026-05-05 05:52 41.28391 28.72827 332 ft 26 kts 24°
2026-05-05 05:52 41.28449 28.72933 331 ft 12 kts 131°
2026-05-05 05:52 41.28385 28.72954 334 ft 6 kts 176°
2026-05-05 05:52 41.28374 28.72955 330 ft 7 kts 177°
2026-05-05 05:53 41.28319 28.72958 333 ft 9 kts 179°
2026-05-05 05:53 41.28247 28.72959 332 ft 12 kts 179°
2026-05-05 05:53 41.28159 28.72960 332 ft 14 kts 179°
2026-05-05 05:53 41.28055 28.72961 334 ft 16 kts 179°
2026-05-05 05:54 41.27941 28.72963 332 ft 17 kts 180°
2026-05-05 05:54 41.27824 28.72963 333 ft 18 kts 179°
2026-05-05 05:54 41.27719 28.72967 333 ft 11 kts 178°
2026-05-05 05:54 41.27642 28.72970 333 ft 10 kts 179°
2026-05-05 05:55 41.27594 28.73036 332 ft 12 kts 99°
2026-05-05 05:55 41.27527 28.73091 333 ft 13 kts 176°
2026-05-05 05:55 41.27427 28.73094 330 ft 15 kts 179°
2026-05-05 05:55 41.27312 28.73095 329 ft 18 kts 180°
2026-05-05 05:56 41.27182 28.73096 332 ft 20 kts 179°
2026-05-05 05:56 41.27037 28.73100 332 ft 22 kts 179°
2026-05-05 05:56 41.26880 28.73104 330 ft 23 kts 179°
2026-05-05 05:56 41.26739 28.73107 333 ft 17 kts 179°
2026-05-05 05:57 41.26642 28.73108 329 ft 8 kts 180°
2026-05-05 05:57 41.26601 28.73150 333 ft 9 kts 104°
2026-05-05 05:57 41.26599 28.73245 334 ft 11 kts 89°
2026-05-05 05:57 41.26592 28.73343 332 ft 11 kts 123°
2026-05-05 05:58 41.26517 28.73392 332 ft 13 kts 160°
2026-05-05 05:58 41.26466 28.73416 333 ft 5 kts 160°
2026-05-05 05:58 41.26445 28.73446 331 ft 5 kts 101°
2026-05-05 05:58 41.26454 28.73493 333 ft 0 kts 70°
2026-05-05 05:59 41.26456 28.73503 332 ft 2 kts 70°
2026-05-05 05:59 41.26463 28.73526 332 ft 3 kts 71°
2026-05-05 06:00 41.26467 28.73542 334 ft 0 kts 70°
2026-05-05 06:00 41.26467 28.73543 334 ft 0 kts 70°